Location: Austin
(30.3000°N, 97.7500°W)
Time: 07:52:46
(UTC-06:00)

ATLAS CENTAUR Rocket - Pass Details

Date: 12 February 2024
Orbit: 663 x 36579 km, 28.0° (Epoch: 28 February)

Event Time Altitude Azimuth Distance (km) Brightness Sun altitude
Rises 18:05:01 0° 272° (W) 3,390 7.0 1.6°
Reaches altitude 10° 18:06:33 10° 270° (W) 2,750 6.6 1.3°
Maximum altitude 18:12:24 74° 180° (S) 1,958 4.2 0.1°
Drops below altitude 10° 03:22:01 10° 148° (SSE) 24,026 9.6 -50.2°
Sets 04:02:51 0° 136° (SE) 16,933 9.2 -41.6°
